Year,Month,Day,Hour,Minute,Value (Times are PST for temperature in C)
2016,07,25,00,00,19.60
2016,07,25,00,01,19.60
2016,07,25,00,02,19.60
2016,07,25,00,03,19.60
2016,07,25,00,04,19.60
2016,07,25,00,05,19.60
2016,07,25,00,06,19.60
2016,07,25,00,07,19.60
2016,07,25,00,08,19.60
2016,07,25,00,09,19.60
2016,07,25,00,10,19.50
2016,07,25,00,11,19.50
2016,07,25,00,12,19.50
2016,07,25,00,13,19.50
2016,07,25,00,14,19.40
2016,07,25,00,15,19.40
2016,07,25,00,16,19.40
2016,07,25,00,17,19.40
2016,07,25,00,18,19.30
2016,07,25,00,19,19.30
2016,07,25,00,20,19.30
2016,07,25,00,21,19.30
2016,07,25,00,22,19.20
2016,07,25,00,23,19.20
2016,07,25,00,24,19.20
2016,07,25,00,25,19.20
2016,07,25,00,26,19.20
2016,07,25,00,27,19.10
2016,07,25,00,28,19.10
2016,07,25,00,29,19.10
2016,07,25,00,30,19.10
2016,07,25,00,31,19.10
2016,07,25,00,32,19.00
2016,07,25,00,33,19.00
2016,07,25,00,34,19.00
2016,07,25,00,35,19.00
2016,07,25,00,36,18.90
2016,07,25,00,37,18.90
2016,07,25,00,38,18.90
2016,07,25,00,39,18.90
2016,07,25,00,40,18.90
2016,07,25,00,41,18.90
2016,07,25,00,42,18.90
2016,07,25,00,43,18.90
2016,07,25,00,44,18.80
2016,07,25,00,45,18.80
2016,07,25,00,46,18.80
2016,07,25,00,47,18.80
2016,07,25,00,48,18.80
2016,07,25,00,49,18.80
2016,07,25,00,50,18.80
2016,07,25,00,51,18.70
2016,07,25,00,52,18.70
2016,07,25,00,53,18.70
2016,07,25,00,54,18.70
2016,07,25,00,55,18.70
2016,07,25,00,56,18.70
2016,07,25,00,57,18.60
2016,07,25,00,58,18.60
2016,07,25,00,59,18.60
2016,07,25,01,00,18.60
2016,07,25,01,01,18.60
2016,07,25,01,02,18.60
2016,07,25,01,03,18.50
2016,07,25,01,04,18.50
2016,07,25,01,05,18.50
2016,07,25,01,06,18.50
2016,07,25,01,07,18.40
2016,07,25,01,08,18.40
2016,07,25,01,09,18.40
2016,07,25,01,10,18.40
2016,07,25,01,11,18.40
2016,07,25,01,12,18.40
2016,07,25,01,13,18.40
2016,07,25,01,14,18.40
2016,07,25,01,15,18.40
2016,07,25,01,16,18.40
2016,07,25,01,17,18.40
2016,07,25,01,18,18.40
2016,07,25,01,19,18.40
2016,07,25,01,20,18.40
2016,07,25,01,21,18.40
2016,07,25,01,22,18.40
2016,07,25,01,23,18.40
2016,07,25,01,24,18.40
2016,07,25,01,25,18.40
2016,07,25,01,26,18.40
2016,07,25,01,27,18.40
2016,07,25,01,28,18.40
2016,07,25,01,29,18.40
2016,07,25,01,30,18.40
2016,07,25,01,31,18.40
2016,07,25,01,32,18.40
2016,07,25,01,33,18.40
2016,07,25,01,34,18.40
2016,07,25,01,35,18.30
2016,07,25,01,36,18.30
2016,07,25,01,37,18.30
2016,07,25,01,38,18.30
2016,07,25,01,39,18.30
2016,07,25,01,40,18.20
2016,07,25,01,41,18.20
2016,07,25,01,42,18.20
2016,07,25,01,43,18.20
2016,07,25,01,44,18.20
2016,07,25,01,45,18.20
2016,07,25,01,46,18.20
2016,07,25,01,47,18.10
2016,07,25,01,48,18.10
2016,07,25,01,49,18.10
2016,07,25,01,50,18.10
2016,07,25,01,51,18.10
2016,07,25,01,52,18.00
2016,07,25,01,53,18.00
2016,07,25,01,54,18.00
2016,07,25,01,55,18.00
2016,07,25,01,56,17.90
2016,07,25,01,57,17.90
2016,07,25,01,58,17.90
2016,07,25,01,59,17.90
2016,07,25,02,00,17.90
2016,07,25,02,01,17.90
2016,07,25,02,02,17.90
2016,07,25,02,03,17.90
2016,07,25,02,04,17.90
2016,07,25,02,05,17.90
2016,07,25,02,06,17.90
2016,07,25,02,07,17.90
2016,07,25,02,08,17.80
2016,07,25,02,09,17.80
2016,07,25,02,10,17.80
2016,07,25,02,11,17.80
2016,07,25,02,12,17.80
2016,07,25,02,13,17.80
2016,07,25,02,14,17.80
2016,07,25,02,15,17.80
2016,07,25,02,16,17.80
2016,07,25,02,17,17.80
2016,07,25,02,18,17.80
2016,07,25,02,19,17.90
2016,07,25,02,20,17.90
2016,07,25,02,21,17.90
2016,07,25,02,22,17.90
2016,07,25,02,23,17.90
2016,07,25,02,24,17.90
2016,07,25,02,25,17.90
2016,07,25,02,26,17.90
2016,07,25,02,27,17.90
2016,07,25,02,28,17.80
2016,07,25,02,29,17.80
2016,07,25,02,30,17.80
2016,07,25,02,31,17.80
2016,07,25,02,32,17.80
2016,07,25,02,33,17.80
2016,07,25,02,34,17.80
2016,07,25,02,35,17.80
2016,07,25,02,36,17.80
2016,07,25,02,37,17.80
2016,07,25,02,38,17.80
2016,07,25,02,39,17.80
2016,07,25,02,40,17.80
2016,07,25,02,41,17.80
2016,07,25,02,42,17.80
2016,07,25,02,43,17.80
2016,07,25,02,44,17.80
2016,07,25,02,45,17.80
2016,07,25,02,46,17.80
2016,07,25,02,47,17.80
2016,07,25,02,48,17.80
2016,07,25,02,49,17.80
2016,07,25,02,50,17.80
2016,07,25,02,51,17.80
2016,07,25,02,52,17.80
2016,07,25,02,53,17.80
2016,07,25,02,54,17.80
2016,07,25,02,55,17.80
2016,07,25,02,56,17.80
2016,07,25,02,57,17.80
2016,07,25,02,58,17.80
2016,07,25,02,59,17.80
2016,07,25,03,00,17.80
2016,07,25,03,01,17.80
2016,07,25,03,02,17.80
2016,07,25,03,03,17.80
2016,07,25,03,04,17.80
2016,07,25,03,05,17.80
2016,07,25,03,06,17.80
2016,07,25,03,07,17.80
2016,07,25,03,08,17.70
2016,07,25,03,09,17.70
2016,07,25,03,10,17.70
2016,07,25,03,11,17.70
2016,07,25,03,12,17.70
2016,07,25,03,13,17.70
2016,07,25,03,14,17.70
2016,07,25,03,15,17.70
2016,07,25,03,16,17.70
2016,07,25,03,17,17.70
2016,07,25,03,18,17.70
2016,07,25,03,19,17.70
2016,07,25,03,20,17.70
2016,07,25,03,21,17.70
2016,07,25,03,22,17.70
2016,07,25,03,23,17.70
2016,07,25,03,24,17.70
2016,07,25,03,25,17.60
2016,07,25,03,26,17.60
2016,07,25,03,27,17.60
2016,07,25,03,28,17.60
2016,07,25,03,29,17.60
2016,07,25,03,30,17.60
2016,07,25,03,31,17.60
2016,07,25,03,32,17.60
2016,07,25,03,33,17.50
2016,07,25,03,34,17.50
2016,07,25,03,35,17.50
2016,07,25,03,36,17.50
2016,07,25,03,37,17.50
2016,07,25,03,38,17.50
2016,07,25,03,39,17.40
2016,07,25,03,40,17.40
2016,07,25,03,41,17.40
2016,07,25,03,42,17.40
2016,07,25,03,43,17.40
2016,07,25,03,44,17.40
2016,07,25,03,45,17.40
2016,07,25,03,46,17.30
2016,07,25,03,47,17.30
2016,07,25,03,48,17.30
2016,07,25,03,49,17.30
2016,07,25,03,50,17.30
2016,07,25,03,51,17.30
2016,07,25,03,52,17.30
2016,07,25,03,53,17.30
2016,07,25,03,54,17.30
2016,07,25,03,55,17.30
2016,07,25,03,56,17.20
2016,07,25,03,57,17.20
2016,07,25,03,58,17.20
2016,07,25,03,59,17.20
2016,07,25,04,00,17.20
2016,07,25,04,01,17.20
2016,07,25,04,02,17.20
2016,07,25,04,04,17.20
2016,07,25,04,05,17.20
2016,07,25,04,06,17.20
2016,07,25,04,07,17.20
2016,07,25,04,08,17.20
2016,07,25,04,09,17.20
2016,07,25,04,10,17.20
2016,07,25,04,11,17.20
2016,07,25,04,12,17.20
2016,07,25,04,13,17.20
2016,07,25,04,14,17.20
2016,07,25,04,15,17.30
2016,07,25,04,16,17.30
2016,07,25,04,17,17.30
2016,07,25,04,18,17.20
2016,07,25,04,19,17.20
2016,07,25,04,20,17.20
2016,07,25,04,21,17.20
2016,07,25,04,22,17.20
2016,07,25,04,23,17.20
2016,07,25,04,24,17.20
2016,07,25,04,25,17.20
2016,07,25,04,26,17.20
2016,07,25,04,27,17.20
2016,07,25,04,28,17.20
2016,07,25,04,29,17.20
2016,07,25,04,30,17.20
2016,07,25,04,31,17.20
2016,07,25,04,32,17.20
2016,07,25,04,33,17.20
2016,07,25,04,34,17.20
2016,07,25,04,35,17.20
2016,07,25,04,36,17.20
2016,07,25,04,37,17.20
2016,07,25,04,38,17.20
2016,07,25,04,39,17.20
2016,07,25,04,40,17.20
2016,07,25,04,41,17.20
2016,07,25,04,42,17.20
2016,07,25,04,43,17.20
2016,07,25,04,44,17.20
2016,07,25,04,45,17.20
2016,07,25,04,46,17.20
2016,07,25,04,47,17.20
2016,07,25,04,48,17.20
2016,07,25,04,49,17.20
2016,07,25,04,50,17.20
2016,07,25,04,51,17.20
2016,07,25,04,52,17.10
2016,07,25,04,53,17.20
2016,07,25,04,54,17.10
2016,07,25,04,55,17.10
2016,07,25,04,56,17.10
2016,07,25,04,57,17.10
2016,07,25,04,58,17.10
2016,07,25,04,59,17.10
2016,07,25,05,00,17.10
2016,07,25,05,01,17.10
2016,07,25,05,02,17.10
2016,07,25,05,03,17.00
2016,07,25,05,04,17.00
2016,07,25,05,05,17.00
2016,07,25,05,06,17.00
2016,07,25,05,07,17.00
2016,07,25,05,08,16.90
2016,07,25,05,09,16.90
2016,07,25,05,10,16.90
2016,07,25,05,11,16.90
2016,07,25,05,12,16.90
2016,07,25,05,13,16.90
2016,07,25,05,14,16.90
2016,07,25,05,15,16.80
2016,07,25,05,16,16.80
2016,07,25,05,17,16.80
2016,07,25,05,18,16.80
2016,07,25,05,19,16.80
2016,07,25,05,20,16.80
2016,07,25,05,21,16.80
2016,07,25,05,22,16.80
2016,07,25,05,23,16.80
2016,07,25,05,24,16.80
2016,07,25,05,25,16.80
2016,07,25,05,26,16.80
2016,07,25,05,27,16.80
2016,07,25,05,28,16.80
2016,07,25,05,29,16.80
2016,07,25,05,30,16.80
2016,07,25,05,31,16.70
2016,07,25,05,32,16.70
2016,07,25,05,33,16.70
2016,07,25,05,34,16.70
2016,07,25,05,35,16.70
2016,07,25,05,36,16.70
2016,07,25,05,37,16.70
2016,07,25,05,38,16.70
2016,07,25,05,39,16.70
2016,07,25,05,40,16.70
2016,07,25,05,41,16.70
2016,07,25,05,42,16.70
2016,07,25,05,43,16.70
2016,07,25,05,44,16.70
2016,07,25,05,45,16.70
2016,07,25,05,46,16.70
2016,07,25,05,47,16.70
2016,07,25,05,48,16.70
2016,07,25,05,49,16.70
2016,07,25,05,50,16.70
2016,07,25,05,51,16.70
2016,07,25,05,52,16.70
2016,07,25,05,53,16.60
2016,07,25,05,54,16.60
2016,07,25,05,55,16.60
2016,07,25,05,56,16.60
2016,07,25,05,57,16.60
2016,07,25,05,58,16.60
2016,07,25,05,59,16.60
2016,07,25,06,00,16.60
2016,07,25,06,01,16.60
2016,07,25,06,02,16.60
2016,07,25,06,03,16.60
2016,07,25,06,04,16.60
2016,07,25,06,05,16.60
2016,07,25,06,06,16.60
2016,07,25,06,07,16.60
2016,07,25,06,08,16.60
2016,07,25,06,09,16.70
2016,07,25,06,10,16.70
2016,07,25,06,11,16.70
2016,07,25,06,12,16.70
2016,07,25,06,13,16.70
2016,07,25,06,14,16.70
2016,07,25,06,15,16.70
2016,07,25,06,16,16.70
2016,07,25,06,17,16.70
2016,07,25,06,18,16.70
2016,07,25,06,19,16.70
2016,07,25,06,20,16.70
2016,07,25,06,21,16.70
2016,07,25,06,22,16.70
2016,07,25,06,23,16.70
2016,07,25,06,24,16.70
2016,07,25,06,25,16.70
2016,07,25,06,26,16.70
2016,07,25,06,27,16.70
2016,07,25,06,28,16.70
2016,07,25,06,29,16.70
2016,07,25,06,30,16.70
2016,07,25,06,31,16.70
2016,07,25,06,32,16.70
2016,07,25,06,33,16.70
2016,07,25,06,34,16.70
2016,07,25,06,35,16.70
2016,07,25,06,36,16.70
2016,07,25,06,37,16.70
2016,07,25,06,38,16.70
2016,07,25,06,39,16.70
2016,07,25,06,40,16.70
2016,07,25,06,41,16.70
2016,07,25,06,42,16.70
2016,07,25,06,43,16.70
2016,07,25,06,44,16.70
2016,07,25,06,45,16.70
2016,07,25,06,46,16.70
2016,07,25,06,47,16.70
2016,07,25,06,48,16.70
2016,07,25,06,49,16.80
2016,07,25,06,50,16.80
2016,07,25,06,51,16.80
2016,07,25,06,52,16.80
2016,07,25,06,53,16.80
2016,07,25,06,54,16.80
2016,07,25,06,55,16.80
2016,07,25,06,56,16.80
2016,07,25,06,57,16.80
2016,07,25,06,58,16.80
2016,07,25,06,59,16.80
2016,07,25,07,00,16.80
2016,07,25,07,01,16.80
2016,07,25,07,02,16.80
2016,07,25,07,03,16.80
2016,07,25,07,04,16.80
2016,07,25,07,05,16.80
2016,07,25,07,06,16.80
2016,07,25,07,07,16.90
2016,07,25,07,08,16.90
2016,07,25,07,09,16.90
2016,07,25,07,10,16.90
2016,07,25,07,11,16.90
2016,07,25,07,12,16.90
2016,07,25,07,13,16.90
2016,07,25,07,14,16.90
2016,07,25,07,15,17.00
2016,07,25,07,16,17.00
2016,07,25,07,17,17.00
2016,07,25,07,18,17.00
2016,07,25,07,19,17.10
2016,07,25,07,20,17.10
2016,07,25,07,21,17.10
2016,07,25,07,22,17.10
2016,07,25,07,23,17.10
2016,07,25,07,24,17.20
2016,07,25,07,25,17.20
2016,07,25,07,26,17.20
2016,07,25,07,27,17.20
2016,07,25,07,28,17.20
2016,07,25,07,29,17.20
2016,07,25,07,30,17.30
2016,07,25,07,31,17.30
2016,07,25,07,32,17.30
2016,07,25,07,33,17.30
2016,07,25,07,34,17.40
2016,07,25,07,35,17.40
2016,07,25,07,36,17.40
2016,07,25,07,37,17.40
2016,07,25,07,38,17.50
2016,07,25,07,39,17.50
2016,07,25,07,40,17.50
2016,07,25,07,41,17.60
2016,07,25,07,42,17.60
2016,07,25,07,43,17.60
2016,07,25,07,44,17.60
2016,07,25,07,45,17.70
2016,07,25,07,46,17.70
2016,07,25,07,47,17.70
2016,07,25,07,48,17.70
2016,07,25,07,49,17.80
2016,07,25,07,50,17.80
2016,07,25,07,51,17.80
2016,07,25,07,52,17.80
2016,07,25,07,53,17.80
2016,07,25,07,54,17.90
2016,07,25,07,55,17.90
2016,07,25,07,56,17.90
2016,07,25,07,57,17.90
2016,07,25,07,58,17.90
2016,07,25,07,59,17.90
2016,07,25,08,00,17.90
2016,07,25,08,01,17.90
2016,07,25,08,02,17.90
2016,07,25,08,03,17.90
2016,07,25,08,04,17.90
2016,07,25,08,05,17.90
2016,07,25,08,06,17.90
2016,07,25,08,07,17.90
2016,07,25,08,08,17.90
2016,07,25,08,09,17.90
2016,07,25,08,10,18.00
2016,07,25,08,11,18.00
2016,07,25,08,12,18.00
2016,07,25,08,13,18.00
2016,07,25,08,14,18.00
2016,07,25,08,15,18.10
2016,07,25,08,16,18.10
2016,07,25,08,17,18.10
2016,07,25,08,18,18.10
2016,07,25,08,19,18.10
2016,07,25,08,20,18.10
2016,07,25,08,21,18.10
2016,07,25,08,22,18.10
2016,07,25,08,23,18.10
2016,07,25,08,24,18.10
2016,07,25,08,25,18.10
2016,07,25,08,26,18.10
2016,07,25,08,27,18.10
2016,07,25,08,28,18.10
2016,07,25,08,29,18.10
2016,07,25,08,30,18.10
2016,07,25,08,31,18.10
2016,07,25,08,32,18.10
2016,07,25,08,33,18.10
2016,07,25,08,34,18.10
2016,07,25,08,35,18.10
2016,07,25,08,36,18.10
2016,07,25,08,37,18.10
2016,07,25,08,38,18.10
2016,07,25,08,39,18.10
2016,07,25,08,40,18.10
2016,07,25,08,41,18.10
2016,07,25,08,42,18.00
2016,07,25,08,43,18.00
2016,07,25,08,44,18.00
2016,07,25,08,45,18.10
2016,07,25,08,46,18.10
2016,07,25,08,47,18.10
2016,07,25,08,48,18.10
2016,07,25,08,49,18.20
2016,07,25,08,50,18.20
2016,07,25,08,51,18.20
2016,07,25,08,52,18.20
2016,07,25,08,53,18.20
2016,07,25,08,54,18.20
2016,07,25,08,55,18.20
2016,07,25,08,56,18.20
2016,07,25,08,57,18.20
2016,07,25,08,58,18.20
2016,07,25,08,59,18.30
2016,07,25,09,00,18.30
2016,07,25,09,01,18.30
2016,07,25,09,02,18.30
2016,07,25,09,03,18.30
2016,07,25,09,04,18.30
2016,07,25,09,05,18.30
2016,07,25,09,06,18.30
2016,07,25,09,07,18.40
2016,07,25,09,08,18.40
2016,07,25,09,09,18.50
2016,07,25,09,10,18.50
2016,07,25,09,11,18.60
2016,07,25,09,12,18.60
2016,07,25,09,13,18.60
2016,07,25,09,14,18.70
2016,07,25,09,15,18.70
2016,07,25,09,16,18.80
2016,07,25,09,17,18.80
2016,07,25,09,18,18.80
2016,07,25,09,19,18.80
2016,07,25,09,20,18.80
2016,07,25,09,21,18.90
2016,07,25,09,22,18.90
2016,07,25,09,23,18.90
2016,07,25,09,24,18.90
2016,07,25,09,25,18.90
2016,07,25,09,26,19.00
2016,07,25,09,27,19.10
2016,07,25,09,28,19.10
2016,07,25,09,29,19.10
2016,07,25,09,30,19.20
2016,07,25,09,31,19.30
2016,07,25,09,32,19.30
2016,07,25,09,33,19.30
2016,07,25,09,34,19.30
2016,07,25,09,35,19.40
2016,07,25,09,36,19.40
2016,07,25,09,37,19.50
2016,07,25,09,38,19.50
2016,07,25,09,39,19.50
2016,07,25,09,40,19.50
2016,07,25,09,41,19.50
2016,07,25,09,42,19.50
2016,07,25,09,43,19.50
2016,07,25,09,44,19.60
2016,07,25,09,45,19.70
2016,07,25,09,46,19.70
2016,07,25,09,47,19.80
2016,07,25,09,48,19.70
2016,07,25,09,49,19.70
2016,07,25,09,50,19.70
2016,07,25,09,51,19.70
2016,07,25,09,52,19.70
2016,07,25,09,53,19.80
2016,07,25,09,54,19.80
2016,07,25,09,55,19.80
2016,07,25,09,56,19.80
2016,07,25,09,57,19.80
2016,07,25,09,58,19.90
2016,07,25,09,59,19.90
2016,07,25,10,00,19.90
2016,07,25,10,01,19.90
2016,07,25,10,02,19.90
2016,07,25,10,03,19.90
2016,07,25,10,04,19.90
2016,07,25,10,05,19.90
2016,07,25,10,06,19.90
2016,07,25,10,07,19.90
2016,07,25,10,08,19.90
2016,07,25,10,09,20.00
2016,07,25,10,10,20.10
2016,07,25,10,11,20.10
2016,07,25,10,12,20.10
2016,07,25,10,13,20.10
2016,07,25,10,14,20.20
2016,07,25,10,15,20.20
2016,07,25,10,16,20.20
2016,07,25,10,17,20.20
2016,07,25,10,18,20.20
2016,07,25,10,19,20.20
2016,07,25,10,20,20.20
2016,07,25,10,21,20.20
2016,07,25,10,22,20.10
2016,07,25,10,23,20.00
2016,07,25,10,24,19.90
2016,07,25,10,25,19.80
2016,07,25,10,26,19.70
2016,07,25,10,27,19.60
2016,07,25,10,28,19.60
2016,07,25,10,29,19.60
2016,07,25,10,30,19.60
2016,07,25,10,31,19.60
2016,07,25,10,32,19.60
2016,07,25,10,33,19.60
2016,07,25,10,34,19.60
2016,07,25,10,35,19.60
2016,07,25,10,36,19.60
2016,07,25,10,37,19.60
2016,07,25,10,38,19.70
2016,07,25,10,39,19.70
2016,07,25,10,40,19.70
2016,07,25,10,41,19.80
2016,07,25,10,42,19.80
2016,07,25,10,43,19.90
2016,07,25,10,44,19.90
2016,07,25,10,45,19.90
2016,07,25,10,46,19.90
2016,07,25,10,47,19.90
2016,07,25,10,48,19.90
2016,07,25,10,49,19.90
2016,07,25,10,50,20.00
2016,07,25,10,51,20.10
2016,07,25,10,52,20.20
2016,07,25,10,53,20.30
2016,07,25,10,54,20.40
2016,07,25,10,55,20.40
2016,07,25,10,56,20.40
2016,07,25,10,57,20.40
2016,07,25,10,58,20.50
2016,07,25,10,59,20.50
2016,07,25,11,00,20.50
2016,07,25,11,01,20.50
2016,07,25,11,02,20.50
2016,07,25,11,03,20.50
2016,07,25,11,04,20.50
2016,07,25,11,05,20.50
2016,07,25,11,06,20.50
2016,07,25,11,07,20.50
2016,07,25,11,08,20.60
2016,07,25,11,09,20.70
2016,07,25,11,10,20.80
2016,07,25,11,11,20.80
2016,07,25,11,12,20.80
2016,07,25,11,13,20.90
2016,07,25,11,14,20.90
2016,07,25,11,15,20.90
2016,07,25,11,16,20.90
2016,07,25,11,17,20.80
2016,07,25,11,18,20.80
2016,07,25,11,19,20.80
2016,07,25,11,20,20.80
2016,07,25,11,21,20.80
2016,07,25,11,22,20.90
2016,07,25,11,23,21.00
2016,07,25,11,24,21.00
2016,07,25,11,25,21.00
2016,07,25,11,26,21.00
2016,07,25,11,27,21.10
2016,07,25,11,28,21.20
2016,07,25,11,29,21.20
2016,07,25,11,30,21.20
2016,07,25,11,31,21.30
2016,07,25,11,32,21.40
2016,07,25,11,33,21.50
2016,07,25,11,34,21.60
2016,07,25,11,35,21.80
2016,07,25,11,36,21.90
2016,07,25,11,37,21.90
2016,07,25,11,38,22.00
2016,07,25,11,39,21.90
2016,07,25,11,40,21.90
2016,07,25,11,41,21.80
2016,07,25,11,42,21.80
2016,07,25,11,43,21.70
2016,07,25,11,44,21.50
2016,07,25,11,45,21.40
2016,07,25,11,46,21.50
2016,07,25,11,47,21.70
2016,07,25,11,48,21.90
2016,07,25,11,49,21.90
2016,07,25,11,50,22.00
2016,07,25,11,51,22.10
2016,07,25,11,52,22.00
2016,07,25,11,53,22.00
2016,07,25,11,54,21.90
2016,07,25,11,55,21.90
2016,07,25,11,56,21.80
2016,07,25,11,57,21.90
2016,07,25,11,58,21.90
2016,07,25,11,59,22.00
2016,07,25,12,00,22.00
2016,07,25,12,01,22.00
2016,07,25,12,02,22.10
2016,07,25,12,03,22.10
2016,07,25,12,04,22.10
2016,07,25,12,05,22.20
2016,07,25,12,06,22.10
2016,07,25,12,07,22.00
2016,07,25,12,08,21.90
2016,07,25,12,09,21.80
2016,07,25,12,10,21.80
2016,07,25,12,11,21.80
2016,07,25,12,12,21.80
2016,07,25,12,13,21.90
2016,07,25,12,14,22.10
2016,07,25,12,15,22.20
2016,07,25,12,16,22.40
2016,07,25,12,17,22.60
2016,07,25,12,18,22.70
2016,07,25,12,19,22.90
2016,07,25,12,20,23.10
2016,07,25,12,21,23.20
2016,07,25,12,22,23.30
2016,07,25,12,23,23.40
2016,07,25,12,24,23.50
2016,07,25,12,25,23.50
2016,07,25,12,26,23.40
2016,07,25,12,27,23.30
2016,07,25,12,28,23.20
2016,07,25,12,29,23.20
2016,07,25,12,30,23.30
2016,07,25,12,31,23.40
2016,07,25,12,32,23.60
2016,07,25,12,33,23.70
2016,07,25,12,34,23.80
2016,07,25,12,35,24.00
2016,07,25,12,36,24.10
2016,07,25,12,37,24.20
2016,07,25,12,38,24.30
2016,07,25,12,39,24.40
2016,07,25,12,40,24.40
2016,07,25,12,41,24.50
2016,07,25,12,42,24.60
2016,07,25,12,43,24.70
2016,07,25,12,44,24.70
2016,07,25,12,45,24.50
2016,07,25,12,46,24.30
2016,07,25,12,47,24.10
2016,07,25,12,48,24.00
2016,07,25,12,49,23.80
2016,07,25,12,50,23.70
2016,07,25,12,51,23.50
2016,07,25,12,52,23.40
2016,07,25,12,53,23.30
2016,07,25,12,54,23.20
2016,07,25,12,55,23.20
2016,07,25,12,56,23.30
2016,07,25,12,57,23.30
2016,07,25,12,58,23.30
2016,07,25,12,59,23.30
2016,07,25,13,00,23.30
2016,07,25,13,01,23.30
2016,07,25,13,02,23.30
2016,07,25,13,03,23.30
2016,07,25,13,04,23.30
2016,07,25,13,05,23.40
2016,07,25,13,06,23.50
2016,07,25,13,07,23.60
2016,07,25,13,08,23.80
2016,07,25,13,09,23.90
2016,07,25,13,10,24.00
2016,07,25,13,11,24.10
2016,07,25,13,12,24.00
2016,07,25,13,13,24.00
2016,07,25,13,14,23.90
2016,07,25,13,15,23.90
2016,07,25,13,16,23.90
2016,07,25,13,17,23.90
2016,07,25,13,18,23.80
2016,07,25,13,19,23.80
2016,07,25,13,20,23.80
2016,07,25,13,21,23.80
2016,07,25,13,22,23.80
2016,07,25,13,23,23.80
2016,07,25,13,24,23.80
2016,07,25,13,25,23.80
2016,07,25,13,26,23.90
2016,07,25,13,27,23.90
2016,07,25,13,28,24.00
2016,07,25,13,29,24.00
2016,07,25,13,30,24.00
2016,07,25,13,31,24.10
2016,07,25,13,32,24.10
2016,07,25,13,33,24.20
2016,07,25,13,34,24.10
2016,07,25,13,35,24.10
2016,07,25,13,36,24.10
2016,07,25,13,37,24.00
2016,07,25,13,38,24.10
2016,07,25,13,39,24.10
2016,07,25,13,40,24.10
2016,07,25,13,41,24.10
2016,07,25,13,42,24.00
2016,07,25,13,43,24.00
2016,07,25,13,44,24.00
2016,07,25,13,45,24.10
2016,07,25,13,46,24.20
2016,07,25,13,47,24.30
2016,07,25,13,48,24.50
2016,07,25,13,49,24.60
2016,07,25,13,50,24.60
2016,07,25,13,51,24.60
2016,07,25,13,52,24.50
2016,07,25,13,53,24.40
2016,07,25,13,54,24.40
2016,07,25,13,55,24.40
2016,07,25,13,56,24.50
2016,07,25,13,57,24.50
2016,07,25,13,58,24.60
2016,07,25,13,59,24.60
2016,07,25,14,00,24.70
2016,07,25,14,01,24.70
2016,07,25,14,02,24.60
2016,07,25,14,03,24.60
2016,07,25,14,04,24.60
2016,07,25,14,05,24.60
2016,07,25,14,06,24.60
2016,07,25,14,07,24.50
2016,07,25,14,08,24.50
2016,07,25,14,09,24.50
2016,07,25,14,10,24.60
2016,07,25,14,11,24.70
2016,07,25,14,12,24.70
2016,07,25,14,13,24.70
2016,07,25,14,14,24.80
2016,07,25,14,15,24.80
2016,07,25,14,16,24.90
2016,07,25,14,17,24.90
2016,07,25,14,18,24.90
2016,07,25,14,19,24.90
2016,07,25,14,20,25.00
2016,07,25,14,21,25.10
2016,07,25,14,22,25.10
2016,07,25,14,23,25.20
2016,07,25,14,24,25.20
2016,07,25,14,25,25.20
2016,07,25,14,26,25.10
2016,07,25,14,27,25.00
2016,07,25,14,28,24.90
2016,07,25,14,29,24.80
2016,07,25,14,30,24.70
2016,07,25,14,31,24.70
2016,07,25,14,32,24.70
2016,07,25,14,33,24.80
2016,07,25,14,34,24.90
2016,07,25,14,35,25.00
2016,07,25,14,36,25.10
2016,07,25,14,37,25.10
2016,07,25,14,38,25.20
2016,07,25,14,39,25.10
2016,07,25,14,40,25.10
2016,07,25,14,41,25.10
2016,07,25,14,42,25.10
2016,07,25,14,43,25.10
2016,07,25,14,44,25.00
2016,07,25,14,45,25.00
2016,07,25,14,46,24.90
2016,07,25,14,47,24.90
2016,07,25,14,48,24.90
2016,07,25,14,49,24.90
2016,07,25,14,50,25.00
2016,07,25,14,51,25.00
2016,07,25,14,52,25.00
2016,07,25,14,53,25.00
2016,07,25,14,54,24.90
2016,07,25,14,55,24.90
2016,07,25,14,56,24.90
2016,07,25,14,57,24.90
2016,07,25,14,58,24.90
2016,07,25,14,59,24.80
2016,07,25,15,00,24.80
2016,07,25,15,01,24.70
2016,07,25,15,02,24.70
2016,07,25,15,03,24.70
2016,07,25,15,04,24.70
2016,07,25,15,05,24.70
2016,07,25,15,06,24.80
2016,07,25,15,07,24.80
2016,07,25,15,08,25.00
2016,07,25,15,09,25.00
2016,07,25,15,10,25.10
2016,07,25,15,11,25.10
2016,07,25,15,12,25.10
2016,07,25,15,13,25.20
2016,07,25,15,14,25.10
2016,07,25,15,15,25.20
2016,07,25,15,16,25.20
2016,07,25,15,17,25.20
2016,07,25,15,18,25.30
2016,07,25,15,19,25.50
2016,07,25,15,20,25.60
2016,07,25,15,21,25.60
2016,07,25,15,22,25.70
2016,07,25,15,23,25.80
2016,07,25,15,24,25.80
2016,07,25,15,25,25.80
2016,07,25,15,26,25.90
2016,07,25,15,27,25.90
2016,07,25,15,28,25.80
2016,07,25,15,29,25.80
2016,07,25,15,30,25.80
2016,07,25,15,31,25.80
2016,07,25,15,32,25.90
2016,07,25,15,33,25.90
2016,07,25,15,34,25.90
2016,07,25,15,35,25.90
2016,07,25,15,36,26.00
2016,07,25,15,37,26.00
2016,07,25,15,38,25.90
2016,07,25,15,39,25.90
2016,07,25,15,40,26.00
2016,07,25,15,41,26.00
2016,07,25,15,42,26.00
2016,07,25,15,43,26.00
2016,07,25,15,44,26.00
2016,07,25,15,45,26.10
2016,07,25,15,46,26.10
2016,07,25,15,47,26.10
2016,07,25,15,48,26.00
2016,07,25,15,49,26.00
2016,07,25,15,50,26.00
2016,07,25,15,51,26.00
2016,07,25,15,52,25.90
2016,07,25,15,53,26.00
2016,07,25,15,54,26.00
2016,07,25,15,55,26.10
2016,07,25,15,56,26.10
2016,07,25,15,57,26.10
2016,07,25,15,58,26.20
2016,07,25,15,59,26.20
2016,07,25,16,00,26.20
2016,07,25,16,01,26.20
2016,07,25,16,02,26.20
2016,07,25,16,03,26.20
2016,07,25,16,04,26.30
2016,07,25,16,05,26.40
2016,07,25,16,06,26.40
2016,07,25,16,07,26.40
2016,07,25,16,08,26.50
2016,07,25,16,09,26.60
2016,07,25,16,10,26.60
2016,07,25,16,11,26.60
2016,07,25,16,12,26.70
2016,07,25,16,13,26.70
2016,07,25,16,14,26.80
2016,07,25,16,15,26.80
2016,07,25,16,16,26.90
2016,07,25,16,17,26.90
2016,07,25,16,18,26.90
2016,07,25,16,19,26.90
2016,07,25,16,20,26.90
2016,07,25,16,21,27.00
2016,07,25,16,22,27.00
2016,07,25,16,23,27.10
2016,07,25,16,24,27.10
2016,07,25,16,25,27.10
2016,07,25,16,26,27.20
2016,07,25,16,27,27.10
2016,07,25,16,28,27.10
2016,07,25,16,29,27.00
2016,07,25,16,30,27.00
2016,07,25,16,31,26.90
2016,07,25,16,32,26.90
2016,07,25,16,33,26.90
2016,07,25,16,34,26.90
2016,07,25,16,35,26.90
2016,07,25,16,36,26.90
2016,07,25,16,37,26.90
2016,07,25,16,38,26.80
2016,07,25,16,39,26.80
2016,07,25,16,40,26.80
2016,07,25,16,41,26.80
2016,07,25,16,42,26.80
2016,07,25,16,43,26.80
2016,07,25,16,44,26.80
2016,07,25,16,45,26.80
2016,07,25,16,46,26.80
2016,07,25,16,47,26.70
2016,07,25,16,48,26.70
2016,07,25,16,49,26.70
2016,07,25,16,50,26.60
2016,07,25,16,51,26.60
2016,07,25,16,52,26.50
2016,07,25,16,53,26.50
2016,07,25,16,54,26.50
2016,07,25,16,55,26.60
2016,07,25,16,56,26.60
2016,07,25,16,57,26.60
2016,07,25,16,58,26.60
2016,07,25,16,59,26.60
2016,07,25,17,00,26.60
2016,07,25,17,01,26.60
2016,07,25,17,02,26.60
2016,07,25,17,03,26.60
2016,07,25,17,04,26.70
2016,07,25,17,05,26.70
2016,07,25,17,06,26.70
2016,07,25,17,07,26.80
2016,07,25,17,08,26.80
2016,07,25,17,09,26.80
2016,07,25,17,10,26.80
2016,07,25,17,11,26.80
2016,07,25,17,12,26.80
2016,07,25,17,13,26.80
2016,07,25,17,14,26.90
2016,07,25,17,15,26.90
2016,07,25,17,16,26.90
2016,07,25,17,17,27.00
2016,07,25,17,18,27.00
2016,07,25,17,19,27.00
2016,07,25,17,20,27.00